sat.trackr.live / text

‹ back to catalog

STARLINK-37307

NORAD 68681 · 2026-077V

PAYLOAD ACTIVE UNKNOWN

§ Identity

Operator
Country
US
Launch date
2026-04-11
Launch site
AFWTR
Launch vehicle
Mass (kg)
RCS (m²)

Purposes: comms

External: N2YO · Heavens-Above · Gunter

§ Orbital elements

Epoch: 2026-05-25T02:42:02.026080Z

Period
93.91 min
Inclination
97.2856°
Eccentricity
0.0001311
Mean motion
15.33454780 rev/d
Perigee alt
464.6 km
Apogee alt
466.4 km
Semi-major
6,843.7 km
B*
5.7437e-4
RAAN
16.7433°
Arg perigee
87.9084°
Mean anomaly
272.2309°
Rev number
687

§ Raw data

STARLINK-373071 68681U 26077V   26145.11252345  .00018519  00000+0  57437-3 0  99942 68681  97.2856  16.7433 0001311  87.9084 272.2309 15.33454780  6870

JSON: /api/v1/satellites/68681 · /tle

For live sub-satellite position, see the globe view (requires WebGL).

§ Visibility from observer

Set your observer location to see the next 7 days of passes ≥ 10°. The values pass through the URL so the page stays shareable.

No JS? Fill the form by hand. The geolocation button needs JavaScript.